CT2IRK-11 Weather Reports


time (UTC)temp
C
wind
direction
speed
KPH
gust
KPH
rain 1hr
cm
rain 24hr
cm
rain mn
cm
humidity
%
barometer
mb
20180221230059 7 68 0.0 19.3 0.00 0.00 0.00 66 1004.8
20180221225801 7 68 0.0 19.3 0.00 0.00 0.00 66 1004.8
20180221225559 7 68 0.0 19.3 0.00 0.00 0.00 65 1004.9
20180221225300 7 90 0.0 19.3 0.00 0.00 0.00 65 1004.9
20180221225059 8 90 0.0 19.3 0.00 0.00 0.00 64 1004.9
20180221224800 8 132 0.0 19.3 0.00 0.00 0.00 64 1004.9
20180221224558 8 170 0.0 19.3 0.00 0.00 0.00 64 1004.9
20180221224301 8 170 0.0 19.3 0.00 0.00 0.00 62 1004.9
20180221224059 8 180 0.0 19.3 0.00 0.00 0.00 62 1004.9
20180221223759 8 168 0.0 19.3 0.00 0.00 0.00 61 1004.9
20180221223558 9 123 6.4 19.3 0.00 0.00 0.00 59 1004.9
20180221223259 9 135 6.4 19.3 0.00 0.00 0.00 59 1004.8
20180221223058 8 122 6.4 19.3 0.00 0.00 0.00 60 1004.7
20180221222801 8 135 6.4 19.3 0.00 0.00 0.00 61 1004.7
20180221222559 8 109 6.4 19.3 0.00 0.00 0.00 61 1004.7
20180221222300 8 105 3.2 19.3 0.00 0.00 0.00 60 1004.7
20180221222058 9 138 1.6 19.3 0.00 0.00 0.00 60 1004.7
20180221221801 9 149 0.0 19.3 0.00 0.00 0.00 60 1004.7
20180221221557 9 97 0.0 19.3 0.00 0.00 0.00 59 1004.7
20180221221300 9 115 6.4 19.3 0.00 0.00 0.00 59 1004.7
20180221221057 9 99 4.8 19.3 0.00 0.00 0.00 59 1004.7
20180221220800 9 112 4.8 19.3 0.00 0.00 0.00 59 1004.7
20180221220558 9 112 4.8 19.3 0.00 0.00 0.00 59 1004.7
20180221220300 9 137 4.8 19.3 0.00 0.00 0.00 60 1004.7
20180221220058 9 113 4.8 19.3 0.00 0.00 0.00 60 1004.7
20180221215759 9 104 3.2 19.3 0.00 0.00 0.00 60 1004.7
20180221215558 9 121 3.2 19.3 0.00 0.00 0.00 60 1004.5
20180221215300 9 112 6.4 19.3 0.00 0.00 0.00 60 1004.5
20180221215058 9 118 6.4 19.3 0.00 0.00 0.00 60 1004.5
20180221214801 9 125 4.8 19.3 0.00 0.00 0.00 60 1004.5
20180221214557 8 112 4.8 19.3 0.00 0.00 0.00 61 1004.5
20180221214259 8 140 4.8 19.3 0.00 0.00 0.00 62 1004.4
20180221214057 9 135 0.0 19.3 0.00 0.00 0.00 62 1004.4
20180221213801 9 158 0.0 19.3 0.00 0.00 0.00 62 1004.4
20180221213557 9 197 0.0 19.3 0.00 0.00 0.00 62 1004.4
20180221213300 9 177 1.6 19.3 0.00 0.00 0.00 62 1004.4
20180221213057 9 163 1.6 19.3 0.00 0.00 0.00 62 1004.4
20180221212759 10 254 0.0 19.3 0.00 0.00 0.00 61 1004.4
20180221212557 10 301 0.0 19.3 0.00 0.00 0.00 58 1004.4
20180221212300 10 338 0.0 19.3 0.00 0.00 0.00 58 1004.4
20180221212058 10 348 0.0 19.3 0.00 0.00 0.00 58 1004.3
20180221211800 10 338 0.0 19.3 0.00 0.00 0.00 57 1004.3
20180221211559 10 343 0.0 19.3 0.00 0.00 0.00 57 1004.3
20180221211300 11 125 4.8 19.3 0.00 0.00 0.00 57 1004.3
20180221211058 11 94 0.0 19.3 0.00 0.00 0.00 57 1004.3
20180221210759 11 122 6.4 19.3 0.00 0.00 0.00 57 1004.3
20180221210558 11 90 3.2 19.3 0.00 0.00 0.00 58 1004.3
20180221210259 11 95 4.8 19.3 0.00 0.00 0.00 58 1004.3
20180221210057 11 85 4.8 19.3 0.00 0.00 0.00 59 1004.3
20180221205800 11 75 4.8 19.3 0.00 0.00 0.00 60 1004.3
20180221205558 11 68 3.2 19.3 0.00 0.00 0.00 60 1004.3
20180221205259 11 79 3.2 19.3 0.00 0.00 0.00 60 1004.3
20180221205057 11 45 1.6 19.3 0.00 0.00 0.00 60 1004.3
20180221204759 11 338 6.4 19.3 0.00 0.00 0.00 59 1004.3
20180221204557 11 321 4.8 19.3 0.00 0.00 0.00 58 1004.3
20180221204259 12 225 0.0 19.3 0.00 0.00 0.00 54 1004.1
20180221204057 12 192 3.2 19.3 0.00 0.00 0.00 54 1004.1
20180221203759 12 202 4.8 19.3 0.00 0.00 0.00 53 1004.1
20180221203558 13 254 0.0 19.3 0.00 0.00 0.00 50 1004.1
20180221203300 13 22 0.0 19.3 0.00 0.00 0.00 47 1004.0
20180221203058 13 22 0.0 19.3 0.00 0.00 0.00 47 1004.0
20180221202759 13 36 3.2 19.3 0.00 0.00 0.00 46 1004.0
20180221202556 14 47 3.2 19.3 0.00 0.00 0.00 45 1004.0
20180221202300 14 71 6.4 19.3 0.00 0.00 0.00 45 1004.0
20180221202058 14 77 6.4 19.3 0.00 0.00 0.00 45 1004.0
20180221201800 14 68 9.7 19.3 0.00 0.00 0.00 45 1003.9
20180221201558 14 87 9.7 19.3 0.00 0.00 0.00 45 1003.9
20180221201258 14 45 8.0 19.3 0.00 0.00 0.00 45 1003.9
20180221201056 14 47 9.7 19.3 0.00 0.00 0.00 45 1003.9
20180221200759 14 55 9.7 19.3 0.00 0.00 0.00 46 1003.9
20180221200557 14 81 11.3 19.3 0.00 0.00 0.00 46 1003.9
20180221200300 14 70 9.7 19.3 0.00 0.00 0.00 46 1003.9
20180221200058 14 62 9.7 19.3 0.00 0.00 0.00 46 1003.9
20180221195800 14 45 9.7 19.3 0.00 0.00 0.00 46 1003.9
20180221195558 14 52 9.7 19.3 0.00 0.00 0.00 46 1003.9
20180221195300 14 45 9.7 19.3 0.00 0.00 0.00 46 1003.9
20180221195058 14 55 9.7 19.3 0.00 0.00 0.00 46 1003.9
20180221194759 14 55 9.7 19.3 0.00 0.00 0.00 47 1003.9
20180221194558 14 68 9.7 19.3 0.00 0.00 0.00 47 1003.9
20180221194259 14 50 8.0 19.3 0.00 0.00 0.00 47 1003.9
20180221194057 14 58 8.0 19.3 0.00 0.00 0.00 47 1003.9
20180221193759 14 37 4.8 19.3 0.00 0.00 0.00 49 1003.9
20180221193558 14 45 6.4 19.3 0.00 0.00 0.00 50 1003.9
20180221193258 14 35 4.8 19.3 0.00 0.00 0.00 51 1003.9
20180221193056 15 58 4.8 19.3 0.00 0.00 0.00 49 1003.8
20180221192759 15 44 4.8 19.3 0.00 0.00 0.00 50 1003.8
20180221192557 15 41 6.4 19.3 0.00 0.00 0.00 49 1003.8
20180221192258 15 55 6.4 19.3 0.00 0.00 0.00 52 1003.8
20180221192057 15 45 6.4 19.3 0.00 0.00 0.00 54 1003.7
20180221191800 15 78 8.0 19.3 0.00 0.00 0.00 56 1003.6
20180221191556 15 56 8.0 19.3 0.00 0.00 0.00 56 1003.6
20180221191300 15 55 8.0 19.3 0.00 0.00 0.00 56 1003.6
20180221191058 15 45 8.0 19.3 0.00 0.00 0.00 56 1003.6
20180221190758 15 46 9.7 19.3 0.00 0.00 0.00 56 1003.4
20180221190556 15 62 8.0 19.3 0.00 0.00 0.00 56 1003.4
20180221190259 15 58 9.7 19.3 0.00 0.00 0.00 55 1003.4
20180221190057 15 60 9.7 19.3 0.00 0.00 0.00 55 1003.4
20180221185800 15 65 8.0 19.3 0.00 0.00 0.00 55 1003.4
20180221185558 15 79 9.7 19.3 0.00 0.00 0.00 55 1003.1
20180221185259 15 58 9.7 19.3 0.00 0.00 0.00 55 1003.1
20180221185057 16 55 8.0 19.3 0.00 0.00 0.00 55 1003.1
20180221184759 16 68 6.4 19.3 0.00 0.00 0.00 55 1003.1
20180221184558 16 67 6.4 19.3 0.00 0.00 0.00 55 1003.1
20180221184259 16 45 8.0 19.3 0.00 0.00 0.00 54 1003.0
20180221184056 16 55 6.4 19.3 0.00 0.00 0.00 54 1003.0
20180221183759 16 71 6.4 19.3 0.00 0.00 0.00 54 1003.0
20180221183557 16 81 4.8 19.3 0.00 0.00 0.00 54 1003.0
20180221183300 16 62 6.4 19.3 0.00 0.00 0.00 54 1003.0
20180221183056 16 54 6.4 19.3 0.00 0.00 0.00 54 1002.9
20180221182800 16 34 4.8 19.3 0.00 0.00 0.00 53 1002.9
20180221182557 16 57 4.8 19.3 0.00 0.00 0.00 53 1002.9
20180221182259 16 31 3.2 19.3 0.00 0.00 0.00 52 1002.9
20180221182057 17 38 3.2 19.3 0.00 0.00 0.00 51 1002.9
20180221181759 17 17 6.4 19.3 0.00 0.00 0.00 51 1002.8
20180221181557 17 1 6.4 19.3 0.00 0.00 0.00 51 1002.8
20180221181259 17 358 4.8 19.3 0.00 0.00 0.00 49 1002.8
20180221181057 17 17 6.4 19.3 0.00 0.00 0.00 49 1002.8
20180221180800 18 19 8.0 19.3 0.00 0.00 0.00 48 1002.8
20180221180557 18 349 9.7 19.3 0.00 0.00 0.00 47 1002.8
20180221180259 18 15 8.0 19.3 0.00 0.00 0.00 46 1002.8
20180221180057 18 22 9.7 19.3 0.00 0.00 0.00 46 1002.8
20180221175758 19 18 11.3 19.3 0.00 0.00 0.00 44 1002.8
20180221175556 19 22 8.0 19.3 0.00 0.00 0.00 42 1002.6
20180221175300 20 45 8.0 19.3 0.00 0.00 0.00 41 1002.6
20180221175056 20 33 6.4 19.3 0.00 0.00 0.00 38 1002.6
20180221174758 21 25 4.8 19.3 0.00 0.00 0.00 35 1002.6
20180221174557 22 22 4.8 19.3 0.00 0.00 0.00 34 1002.6
20180221174259 23 338 0.0 19.3 0.00 0.00 0.00 31 1002.5
20180221174057 23 338 0.0 19.3 0.00 0.00 0.00 31 1002.5
20180221173759 23 292 3.2 19.3 0.00 0.00 0.00 31 1002.5
20180221173556 23 313 3.2 19.3 0.00 0.00 0.00 31 1002.5
20180221173300 23 315 0.0 19.3 0.00 0.00 0.00 31 1002.5
20180221173057 23 297 0.0 19.3 0.00 0.00 0.00 31 1002.5
20180221172759 23 302 0.0 19.3 0.00 0.00 0.00 31 1002.5
20180221172557 23 315 0.0 19.3 0.00 0.00 0.00 31 1002.5
20180221172259 22 306 1.6 19.3 0.00 0.00 0.00 32 1002.5
20180221172058 22 315 4.8 19.3 0.00 0.00 0.00 32 1002.4
20180221171758 22 281 0.0 19.3 0.00 0.00 0.00 33 1002.4
20180221171556 21 312 0.0 19.3 0.00 0.00 0.00 34 1002.4
20180221171259 21 277 3.2 19.3 0.00 0.00 0.00 34 1002.4
20180221171057 21 306 3.2 19.3 0.00 0.00 0.00 35 1002.4
20180221170758 20 292 1.6 19.3 0.00 0.00 0.00 36 1002.3
20180221170557 21 305 4.8 19.3 0.00 0.00 0.00 35 1002.3
20180221170258 20 45 3.2 19.3 0.00 0.00 0.00 35 1002.3
20180221170056 21 22 4.8 19.3 0.00 0.00 0.00 35 1002.3
20180221165800 21 303 6.4 19.3 0.00 0.00 0.00 35 1002.3
20180221165557 20 328 3.2 19.3 0.00 0.00 0.00 36 1002.3
20180221165258 20 258 0.0 19.3 0.00 0.00 0.00 35 1002.3
20180221165057 21 312 3.2 19.3 0.00 0.00 0.00 35 1002.3
20180221164759 21 271 3.2 19.3 0.00 0.00 0.00 35 1002.3
20180221164556 20 310 4.8 19.3 0.00 0.00 0.00 36 1002.3
20180221164259 20 30 3.2 19.3 0.00 0.00 0.00 35 1002.4
20180221164057 20 358 3.2 19.3 0.00 0.00 0.00 35 1002.4
20180221163759 20 347 8.0 19.3 0.00 0.00 0.00 35 1002.4
20180221163557 20 338 6.4 19.3 0.00 0.00 0.00 36 1002.4
20180221163259 20 302 4.8 19.3 0.00 0.00 0.00 36 1002.4
20180221163056 21 273 4.8 19.3 0.00 0.00 0.00 35 1002.4
20180221162800 20 46 3.2 19.3 0.00 0.00 0.00 36 1002.4
20180221162556 20 354 3.2 19.3 0.00 0.00 0.00 37 1002.4
20180221162258 20 24 4.8 19.3 0.00 0.00 0.00 37 1002.4
20180221162056 20 349 9.7 19.3 0.00 0.00 0.00 37 1002.4
20180221161757 20 347 4.8 19.3 0.00 0.00 0.00 36 1002.4
20180221161556 20 355 6.4 19.3 0.00 0.00 0.00 37 1002.4
20180221161259 20 11 6.4 19.3 0.00 0.00 0.00 37 1002.4
20180221161056 20 4 8.0 19.3 0.00 0.00 0.00 37 1002.4
20180221160758 20 14 8.0 19.3 0.00 0.00 0.00 37 1002.4
20180221160557 20 22 11.3 19.3 0.00 0.00 0.00 37 1002.4
20180221160258 20 352 9.7 19.3 0.00 0.00 0.00 37 1002.4
20180221160056 20 2 9.7 19.3 0.00 0.00 0.00 37 1002.4
20180221155759 20 351 9.7 19.3 0.00 0.00 0.00 38 1002.4
20180221155557 20 48 9.7 19.3 0.00 0.00 0.00 38 1002.4
20180221155258 20 48 9.7 19.3 0.00 0.00 0.00 37 1002.4
20180221155057 20 344 8.0 19.3 0.00 0.00 0.00 36 1002.4
20180221154758 20 9 6.4 19.3 0.00 0.00 0.00 36 1002.4
20180221154557 20 316 4.8 19.3 0.00 0.00 0.00 34 1002.4
20180221154258 20 31 8.0 19.3 0.00 0.00 0.00 35 1002.6
20180221154057 20 338 4.8 19.3 0.00 0.00 0.00 36 1002.6
20180221153759 20 6 4.8 19.3 0.00 0.00 0.00 36 1002.6
20180221153556 20 11 6.4 19.3 0.00 0.00 0.00 35 1002.6
20180221153259 20 22 9.7 19.3 0.00 0.00 0.00 35 1002.6
20180221153057 20 41 8.0 19.3 0.00 0.00 0.00 37 1002.6
20180221152759 20 295 6.4 19.3 0.00 0.00 0.00 38 1002.6
20180221152556 20 328 6.4 19.3 0.00 0.00 0.00 37 1002.6
20180221152259 20 282 9.7 19.3 0.00 0.00 0.00 37 1002.6
20180221152056 20 296 4.8 19.3 0.00 0.00 0.00 38 1002.7
20180221151758 20 285 8.0 19.3 0.00 0.00 0.00 40 1002.7
20180221151555 20 45 6.4 19.3 0.00 0.00 0.00 40 1002.7
20180221151259 20 22 6.4 19.3 0.00 0.00 0.00 37 1002.7
20180221151057 20 22 8.0 19.3 0.00 0.00 0.00 38 1002.7
20180221150758 20 45 6.4 19.3 0.00 0.00 0.00 39 1002.9
20180221150556 20 10 6.4 19.3 0.00 0.00 0.00 39 1002.9
20180221150258 20 313 8.0 19.3 0.00 0.00 0.00 39 1002.9
20180221150057 20 320 6.4 19.3 0.00 0.00 0.00 39 1002.9
20180221145759 20 295 9.7 19.3 0.00 0.00 0.00 39 1002.9
20180221145555 20 255 12.9 19.3 0.00 0.00 0.00 39 1003.1
20180221145259 20 31 4.8 19.3 0.00 0.00 0.00 39 1003.1
20180221145056 20 45 6.4 19.3 0.00 0.00 0.00 40 1003.1
20180221144758 20 11 9.7 19.3 0.00 0.00 0.00 40 1003.1
20180221144557 20 333 9.7 19.3 0.00 0.00 0.00 39 1003.1
20180221144301 19 318 8.0 19.3 0.00 0.00 0.00 38 1003.4
20180221144056 19 11 6.4 19.3 0.00 0.00 0.00 39 1003.4
20180221143758 19 16 9.7 19.3 0.00 0.00 0.00 38 1003.4
20180221143555 19 22 12.9 19.3 0.00 0.00 0.00 39 1003.4
20180221143257 20 10 12.9 19.3 0.00 0.00 0.00 39 1003.4
20180221143056 20 22 12.9 19.3 0.00 0.00 0.00 38 1003.6
20180221142759 20 279 9.7 19.3 0.00 0.00 0.00 38 1003.6
20180221142556 20 346 9.7 19.3 0.00 0.00 0.00 38 1003.6
20180221142258 19 334 6.4 19.3 0.00 0.00 0.00 38 1003.6
20180221142056 19 59 8.0 19.3 0.00 0.00 0.00 37 1003.7
20180221141758 19 348 8.0 19.3 0.00 0.00 0.00 38 1003.7
20180221141556 19 7 11.3 19.3 0.00 0.00 0.00 37 1003.7
20180221141258 20 334 14.5 19.3 0.00 0.00 0.00 39 1003.7
20180221141057 20 349 8.0 17.7 0.00 0.00 0.00 38 1003.7
20180221140759 20 22 8.0 17.7 0.00 0.00 0.00 38 1003.9
20180221140557 19 350 8.0 17.7 0.00 0.00 0.00 37 1003.9
20180221140257 19 357 8.0 17.7 0.00 0.00 0.00 39 1003.9
20180221140056 19 357 8.0 17.7 0.00 0.00 0.00 38 1003.9
20180221135757 20 35 14.5 17.7 0.00 0.00 0.00 39 1004.0
20180221135555 20 337 8.0 17.7 0.00 0.00 0.00 39 1004.3
20180221135257 19 293 8.0 17.7 0.00 0.00 0.00 37 1004.3
20180221135056 19 316 6.4 17.7 0.00 0.00 0.00 38 1004.3
20180221134758 19 17 6.4 17.7 0.00 0.00 0.00 39 1004.3
20180221134556 19 56 9.7 17.7 0.00 0.00 0.00 37 1004.3
20180221134257 19 45 9.7 17.7 0.00 0.00 0.00 36 1004.6
20180221134057 19 41 4.8 17.7 0.00 0.00 0.00 37 1004.6
20180221133758 19 55 11.3 17.7 0.00 0.00 0.00 37 1004.6
20180221133556 19 355 8.0 17.7 0.00 0.00 0.00 37 1004.6
20180221133258 19 63 4.8 17.7 0.00 0.00 0.00 36 1004.6
20180221133056 19 38 11.3 17.7 0.00 0.00 0.00 38 1004.7
20180221132759 19 286 6.4 17.7 0.00 0.00 0.00 39 1004.7
20180221132557 19 342 6.4 17.7 0.00 0.00 0.00 38 1004.7
20180221132258 19 358 8.0 17.7 0.00 0.00 0.00 39 1004.7
20180221132056 19 11 9.7 17.7 0.00 0.00 0.00 39 1004.9
20180221131758 18 80 9.7 17.7 0.00 0.00 0.00 40 1005.1
20180221131556 19 354 11.3 17.7 0.00 0.00 0.00 40 1005.1
20180221131258 18 325 4.8 17.7 0.00 0.00 0.00 40 1005.1
20180221131056 18 54 6.4 17.7 0.00 0.00 0.00 39 1005.1
20180221130758 18 22 12.9 17.7 0.00 0.00 0.00 41 1005.3
20180221130556 18 22 9.7 17.7 0.00 0.00 0.00 39 1005.3
20180221130257 18 327 9.7 17.7 0.00 0.00 0.00 39 1005.3
20180221130055 18 358 8.0 17.7 0.00 0.00 0.00 41 1005.3
20180221125757 18 306 8.0 17.7 0.00 0.00 0.00 39 1005.3
20180221125555 18 39 11.3 17.7 0.00 0.00 0.00 41 1005.6
20180221125257 18 14 12.9 17.7 0.00 0.00 0.00 41 1005.6
20180221125055 18 356 12.9 17.7 0.00 0.00 0.00 40 1005.6
20180221124757 18 27 9.7 16.1 0.00 0.00 0.00 42 1005.6
20180221124556 18 345 9.7 16.1 0.00 0.00 0.00 41 1005.6
20180221124258 18 353 11.3 16.1 0.00 0.00 0.00 44 1005.9
20180221124056 18 34 8.0 16.1 0.00 0.00 0.00 46 1005.9
20180221123758 18 45 12.9 16.1 0.00 0.00 0.00 46 1005.9
20180221123555 18 351 9.7 16.1 0.00 0.00 0.00 48 1005.9
20180221123258 17 343 9.7 16.1 0.00 0.00 0.00 48 1006.0
20180221123055 17 42 6.4 16.1 0.00 0.00 0.00 50 1006.0
20180221122758 17 45 6.4 16.1 0.00 0.00 0.00 50 1006.0
20180221122556 17 45 6.4 16.1 0.00 0.00 0.00 50 1006.0
20180221122259 17 68 8.0 16.1 0.00 0.00 0.00 48 1006.0
20180221122056 17 22 4.8 16.1 0.00 0.00 0.00 49 1006.2
20180221121758 17 346 8.0 16.1 0.00 0.00 0.00 50 1006.2
20180221121554 17 304 4.8 16.1 0.00 0.00 0.00 49 1006.2
20180221121257 17 11 8.0 16.1 0.00 0.00 0.00 48 1006.2
20180221121055 17 338 11.3 16.1 0.00 0.00 0.00 50 1006.2
20180221120758 17 338 11.3 16.1 0.00 0.00 0.00 50 1006.4
20180221120555 17 338 11.3 16.1 0.00 0.00 0.00 50 1006.4
20180221120258 16 52 3.2 16.1 0.00 0.00 0.00 49 1006.4
20180221120054 16 325 4.8 16.1 0.00 0.00 0.00 49 1006.4
20180221115758 16 352 9.7 16.1 0.00 0.00 0.00 51 1006.4
20180221115556 16 328 9.7 16.1 0.00 0.00 0.00 50 1006.7
20180221115258 16 22 8.0 16.1 0.00 0.00 0.00 51 1006.7
20180221115054 16 45 6.4 16.1 0.00 0.00 0.00 51 1006.7
20180221114757 16 356 11.3 16.1 0.00 0.00 0.00 52 1006.7
20180221114555 16 338 8.0 16.1 0.00 0.00 0.00 51 1006.7
20180221114258 16 56 8.0 16.1 0.00 0.00 0.00 50 1006.8
20180221114056 16 61 8.0 16.1 0.00 0.00 0.00 51 1006.8
20180221113757 16 68 8.0 16.1 0.00 0.00 0.00 51 1006.8
20180221113555 16 45 4.8 16.1 0.00 0.00 0.00 54 1006.8
20180221113257 16 17 6.4 16.1 0.00 0.00 0.00 54 1006.8
20180221113055 16 355 4.8 16.1 0.00 0.00 0.00 54 1006.8
20180221112757 15 58 6.4 16.1 0.00 0.00 0.00 55 1006.8
20180221112555 15 38 6.4 16.1 0.00 0.00 0.00 55 1006.8
20180221112257 15 16 8.0 16.1 0.00 0.00 0.00 56 1006.8
20180221112055 15 303 4.8 16.1 0.00 0.00 0.00 55 1007.0
20180221111758 15 8 8.0 16.1 0.00 0.00 0.00 57 1007.1
20180221111556 15 57 8.0 16.1 0.00 0.00 0.00 57 1007.1
20180221111257 15 31 8.0 16.1 0.00 0.00 0.00 58 1007.1
20180221111054 15 72 8.0 16.1 0.00 0.00 0.00 59 1007.1
20180221110757 14 79 8.0 16.1 0.00 0.00 0.00 59 1007.1
20180221110555 14 45 6.4 16.1 0.00 0.00 0.00 59 1007.1
20180221110257 14 35 6.4 16.1 0.00 0.00 0.00 59 1007.1
20180221110055 14 23 8.0 16.1 0.00 0.00 0.00 59 1007.1
20180221105756 14 57 9.7 16.1 0.00 0.00 0.00 59 1007.1
20180221105554 13 47 6.4 16.1 0.00 0.00 0.00 60 1007.5
20180221105257 13 62 8.0 16.1 0.00 0.00 0.00 61 1007.5
20180221105055 13 27 8.0 16.1 0.00 0.00 0.00 61 1007.5
20180221104758 13 55 8.0 16.1 0.00 0.00 0.00 62 1007.5
20180221104556 13 34 8.0 16.1 0.00 0.00 0.00 62 1007.5
20180221104257 13 28 8.0 16.1 0.00 0.00 0.00 62 1007.4
20180221104055 12 58 6.4 16.1 0.00 0.00 0.00 63 1007.4
20180221103758 12 40 8.0 16.1 0.00 0.00 0.00 63 1007.4
20180221103555 12 45 8.0 16.1 0.00 0.00 0.00 63 1007.4
20180221103256 12 45 9.7 16.1 0.00 0.00 0.00 63 1007.4
20180221103055 12 73 9.7 16.1 0.00 0.00 0.00 64 1007.5
20180221102757 12 59 8.0 16.1 0.00 0.00 0.00 64 1007.5
20180221102555 12 75 11.3 16.1 0.00 0.00 0.00 64 1007.5
20180221102256 12 48 9.7 16.1 0.00 0.00 0.00 65 1007.5
20180221102055 12 57 8.0 16.1 0.00 0.00 0.00 66 1007.6
20180221101756 11 18 8.0 16.1 0.00 0.00 0.00 65 1007.6
20180221101554 11 46 9.7 16.1 0.00 0.00 0.00 65 1007.6
20180221101256 11 27 9.7 16.1 0.00 0.00 0.00 65 1007.6
20180221101056 11 45 8.0 16.1 0.00 0.00 0.00 66 1007.6
20180221100756 11 68 8.0 16.1 0.00 0.00 0.00 66 1007.6
20180221100555 11 45 9.7 16.1 0.00 0.00 0.00 66 1007.6
20180221100257 11 43 8.0 16.1 0.00 0.00 0.00 66 1007.6
20180221100055 11 49 8.0 16.1 0.00 0.00 0.00 67 1007.6
20180221095757 11 67 11.3 16.1 0.00 0.00 0.00 67 1007.6
20180221095555 10 46 8.0 16.1 0.00 0.00 0.00 67 1007.6
20180221095257 10 68 11.3 16.1 0.00 0.00 0.00 67 1007.6
20180221095055 10 84 12.9 16.1 0.00 0.00 0.00 68 1007.6
20180221094756 10 41 11.3 16.1 0.00 0.00 0.00 68 1007.6
20180221094554 10 58 11.3 16.1 0.00 0.00 0.00 69 1007.6
20180221094257 10 40 11.3 16.1 0.00 0.00 0.00 69 1007.8
20180221094055 10 22 9.7 16.1 0.00 0.00 0.00 69 1007.8
20180221093757 10 68 11.3 16.1 0.00 0.00 0.00 69 1007.8
20180221093619 10 36 8.0 16.1 0.00 0.00 0.00 70 1007.8
20180221093256 10 41 11.3 16.1 0.00 0.00 0.00 70 1007.6
20180221093054 10 51 9.7 16.1 0.00 0.00 0.00 70 1007.6
20180221092757 9 43 9.7 16.1 0.00 0.00 0.00 71 1007.6
20180221092554 9 28 8.0 16.1 0.00 0.00 0.00 71 1007.6
20180221092257 9 22 11.3 16.1 0.00 0.00 0.00 70 1007.6
20180221092056 9 30 11.3 16.1 0.00 0.00 0.00 70 1007.6
20180221091757 9 52 9.7 16.1 0.00 0.00 0.00 71 1007.6
20180221091555 8 45 8.0 16.1 0.00 0.00 0.00 72 1007.6
20180221091256 8 45 8.0 16.1 0.00 0.00 0.00 72 1007.6
20180221091054 8 45 8.0 16.1 0.00 0.00 0.00 72 1007.6
20180221090757 8 35 9.7 16.1 0.00 0.00 0.00 72 1007.7
20180221090555 8 41 9.7 16.1 0.00 0.00 0.00 73 1007.7
20180221090258 8 22 11.3 16.1 0.00 0.00 0.00 73 1007.7
20180221090054 8 22 11.3 16.1 0.00 0.00 0.00 73 1007.7
20180221085756 8 22 11.3 16.1 0.00 0.00 0.00 73 1007.7
20180221085554 8 22 8.0 16.1 0.00 0.00 0.00 74 1007.8
20180221085256 8 35 11.3 16.1 0.00 0.00 0.00 74 1007.8
20180221085054 8 8 9.7 16.1 0.00 0.00 0.00 75 1007.8
20180221084757 7 40 9.7 16.1 0.00 0.00 0.00 75 1007.8
20180221084554 7 22 8.0 16.1 0.00 0.00 0.00 75 1007.8
20180221084256 7 348 11.3 16.1 0.00 0.00 0.00 75 1007.7
20180221084054 7 22 9.7 16.1 0.00 0.00 0.00 75 1007.7
20180221083757 7 23 9.7 16.1 0.00 0.00 0.00 75 1007.7
20180221083555 7 21 9.7 16.1 0.00 0.00 0.00 75 1007.7
20180221083256 7 0 8.0 16.1 0.00 0.00 0.00 75 1007.7
20180221083055 8 346 9.7 16.1 0.00 0.00 0.00 73 1007.7
20180221082756 8 20 6.4 16.1 0.00 0.00 0.00 72 1007.7
20180221082554 8 0 6.4 16.1 0.00 0.00 0.00 71 1007.7
20180221082258 8 33 8.0 16.1 0.00 0.00 0.00 71 1007.7
20180221082054 8 17 8.0 16.1 0.00 0.00 0.00 70 1007.8
20180221081757 8 58 11.3 16.1 0.00 0.00 0.00 71 1007.8
20180221081553 8 62 11.3 16.1 0.00 0.00 0.00 71 1007.8
20180221081256 8 45 9.7 16.1 0.00 0.00 0.00 71 1007.8
20180221081054 8 55 9.7 16.1 0.00 0.00 0.00 71 1007.8
20180221080756 8 50 11.3 16.1 0.00 0.00 0.00 71 1007.7
20180221080555 8 68 11.3 16.1 0.00 0.00 0.00 71 1007.7
20180221080256 8 45 12.9 16.1 0.00 0.00 0.00 71 1007.7
20180221080055 8 45 11.3 16.1 0.00 0.00 0.00 71 1007.7
20180221075756 8 45 11.3 16.1 0.00 0.00 0.00 71 1007.7
20180221075554 8 58 11.3 16.1 0.00 0.00 0.00 71 1007.6
20180221075257 8 45 9.7 16.1 0.00 0.00 0.00 71 1007.6
20180221075054 8 48 11.3 16.1 0.00 0.00 0.00 71 1007.6
20180221074756 8 70 9.7 16.1 0.00 0.00 0.00 72 1007.6
20180221074555 7 32 12.9 16.1 0.00 0.00 0.00 72 1007.6
20180221074257 7 55 12.9 16.1 0.00 0.00 0.00 72 1007.4
20180221074055 7 56 12.9 16.1 0.00 0.00 0.00 72 1007.4
20180221073756 7 55 11.3 14.5 0.00 0.00 0.00 72 1007.4
20180221073553 7 54 12.9 14.5 0.00 0.00 0.00 72 1007.4
20180221073257 7 47 11.3 14.5 0.00 0.00 0.00 72 1007.3
20180221073054 7 41 12.9 14.5 0.00 0.00 0.00 72 1007.3
20180221072756 7 45 11.3 14.5 0.00 0.00 0.00 72 1007.3
20180221072555 7 67 11.3 14.5 0.00 0.00 0.00 72 1007.3
20180221072256 7 45 11.3 14.5 0.00 0.00 0.00 72 1007.3
20180221072054 7 58 9.7 14.5 0.00 0.00 0.00 72 1007.1
20180221071756 7 58 11.3 14.5 0.00 0.00 0.00 72 1007.1
20180221071554 7 63 12.9 14.5 0.00 0.00 0.00 72 1007.1
20180221071256 7 45 9.7 14.5 0.00 0.00 0.00 72 1007.1
20180221071054 7 58 8.0 14.5 0.00 0.00 0.00 72 1007.1
20180221070756 7 45 8.0 14.5 0.00 0.00 0.00 72 1006.9
20180221070553 7 49 9.7 14.5 0.00 0.00 0.00 72 1006.9
20180221070257 7 40 12.9 14.5 0.00 0.00 0.00 72 1006.9
20180221070055 7 65 11.3 14.5 0.00 0.00 0.00 72 1006.9
20180221065756 7 91 11.3 12.9 0.00 0.00 0.00 72 1006.9
20180221065554 7 47 11.3 12.9 0.00 0.00 0.00 72 1006.8
20180221065256 7 68 11.3 12.9 0.00 0.00 0.00 73 1006.8
20180221065055 7 64 11.3 12.9 0.00 0.00 0.00 73 1006.8
20180221064756 7 48 8.0 12.9 0.00 0.00 0.00 74 1006.8
20180221064554 7 52 9.7 12.9 0.00 0.00 0.00 74 1006.8
20180221064255 7 59 8.0 12.9 0.00 0.00 0.00 74 1006.9
20180221064053 7 45 9.7 12.9 0.00 0.00 0.00 74 1006.9
20180221063757 7 45 9.7 12.9 0.00 0.00 0.00 74 1006.9
20180221063555 7 45 8.0 12.9 0.00 0.00 0.00 74 1006.9
20180221063256 7 36 6.4 12.9 0.00 0.00 0.00 74 1006.8
20180221063054 7 38 6.4 12.9 0.00 0.00 0.00 74 1006.8
20180221062756 7 51 6.4 12.9 0.00 0.00 0.00 74 1006.8
20180221062555 7 64 6.4 12.9 0.00 0.00 0.00 74 1006.8
20180221062257 7 47 8.0 12.9 0.00 0.00 0.00 74 1006.8
20180221062055 7 50 8.0 12.9 0.00 0.00 0.00 74 1007.1
20180221061756 7 41 4.8 12.9 0.00 0.00 0.00 74 1007.1
20180221061554 7 30 8.0 12.9 0.00 0.00 0.00 74 1007.1
20180221061256 7 57 8.0 12.9 0.00 0.00 0.00 74 1007.1
20180221061055 7 59 11.3 12.9 0.00 0.00 0.00 75 1007.1
20180221060756 6 76 11.3 12.9 0.00 0.00 0.00 76 1007.3
20180221060554 6 68 9.7 12.9 0.00 0.00 0.00 77 1007.3
20180221060255 6 57 8.0 12.9 0.00 0.00 0.00 79 1007.3
20180221060054 6 67 8.0 12.9 0.00 0.00 0.00 79 1007.3
20180221055757 6 35 6.4 12.9 0.00 0.00 0.00 79 1007.4
20180221055554 6 39 8.0 12.9 0.00 0.00 0.00 79 1007.5
20180221055255 6 37 6.4 12.9 0.00 0.00 0.00 79 1007.5
20180221055055 6 35 6.4 12.9 0.00 0.00 0.00 79 1007.5
20180221054756 6 27 6.4 12.9 0.00 0.00 0.00 80 1007.5
20180221054553 5 31 6.4 12.9 0.00 0.00 0.00 80 1007.5
20180221054257 5 45 8.0 12.9 0.00 0.00 0.00 80 1007.7
20180221054055 5 57 8.0 12.9 0.00 0.00 0.00 80 1007.7
20180221053756 5 36 6.4 12.9 0.00 0.00 0.00 80 1007.7
20180221053554 6 33 6.4 12.9 0.00 0.00 0.00 79 1007.7
20180221053255 6 45 6.4 12.9 0.00 0.00 0.00 78 1007.7
20180221053054 6 42 6.4 12.9 0.00 0.00 0.00 78 1007.6
20180221052756 7 338 6.4 12.9 0.00 0.00 0.00 75 1007.6
20180221052554 7 338 6.4 12.9 0.00 0.00 0.00 72 1007.6
20180221052256 7 22 4.8 12.9 0.00 0.00 0.00 72 1007.6
20180221052054 7 45 6.4 12.9 0.00 0.00 0.00 72 1007.6
20180221051756 7 62 8.0 12.9 0.00 0.00 0.00 73 1007.7
20180221051554 7 52 8.0 12.9 0.00 0.00 0.00 73 1007.7
20180221051256 7 75 9.7 12.9 0.00 0.00 0.00 73 1007.7
20180221051053 7 64 8.0 12.9 0.00 0.00 0.00 74 1007.7
20180221050756 7 60 8.0 12.9 0.00 0.00 0.00 75 1007.8
20180221050554 7 56 9.7 12.9 0.00 0.00 0.00 76 1007.8
20180221050255 6 56 11.3 12.9 0.00 0.00 0.00 77 1007.8
20180221050053 6 47 8.0 12.9 0.00 0.00 0.00 79 1007.8
20180221045756 5 55 6.4 12.9 0.00 0.00 0.00 80 1007.8
20180221045553 5 35 6.4 12.9 0.00 0.00 0.00 80 1007.8
20180221045255 5 44 8.0 12.9 0.00 0.00 0.00 80 1007.8
20180221045053 5 45 8.0 12.9 0.00 0.00 0.00 80 1007.8
20180221044756 5 34 6.4 12.9 0.00 0.00 0.00 79 1007.8
20180221044554 6 44 6.4 12.9 0.00 0.00 0.00 79 1007.8
20180221044256 6 39 6.4 12.9 0.00 0.00 0.00 79 1007.9
20180221044054 6 45 6.4 12.9 0.00 0.00 0.00 79 1007.9
20180221043756 6 27 8.0 12.9 0.00 0.00 0.00 79 1007.9
20180221043554 6 22 6.4 12.9 0.00 0.00 0.00 79 1007.9
20180221043255 6 25 4.8 12.9 0.00 0.00 0.00 79 1008.0
20180221043054 6 32 6.4 12.9 0.00 0.00 0.00 79 1008.0
20180221042756 6 54 6.4 12.9 0.00 0.00 0.00 79 1008.0
20180221042554 6 45 6.4 12.9 0.00 0.00 0.00 79 1008.0
20180221042255 6 45 8.0 12.9 0.00 0.00 0.00 79 1008.0
20180221042053 6 45 6.4 12.9 0.00 0.00 0.00 79 1008.0
20180221041756 6 32 6.4 12.9 0.00 0.00 0.00 79 1008.1
20180221041553 6 22 8.0 12.9 0.00 0.00 0.00 79 1008.1
20180221041256 6 36 6.4 12.9 0.00 0.00 0.00 79 1008.1
20180221041054 6 45 6.4 12.9 0.00 0.00 0.00 80 1008.1
20180221040757 6 45 6.4 12.9 0.00 0.00 0.00 80 1008.3
20180221040553 6 45 8.0 12.9 0.00 0.00 0.00 80 1008.3
20180221040255 6 22 6.4 12.9 0.00 0.00 0.00 80 1008.3
20180221040054 6 37 6.4 12.9 0.00 0.00 0.00 80 1008.3
20180221035755 6 45 6.4 12.9 0.00 0.00 0.00 80 1008.3
20180221035553 6 22 8.0 12.9 0.00 0.00 0.00 80 1008.5
20180221035255 6 25 8.0 12.9 0.00 0.00 0.00 80 1008.5
20180221035054 6 45 8.0 12.9 0.00 0.00 0.00 79 1008.5
20180221034756 6 45 8.0 12.9 0.00 0.00 0.00 79 1008.5
20180221034554 6 22 8.0 12.9 0.00 0.00 0.00 79 1008.5
20180221034255 6 34 6.4 12.9 0.00 0.00 0.00 79 1008.6
20180221034053 6 42 8.0 12.9 0.00 0.00 0.00 79 1008.6
20180221033756 6 30 6.4 12.9 0.00 0.00 0.00 79 1008.6
20180221033552 6 26 6.4 12.9 0.00 0.00 0.00 79 1008.6
20180221033256 6 41 6.4 12.9 0.00 0.00 0.00 79 1008.7
20180221033054 6 22 6.4 12.9 0.00 0.00 0.00 79 1008.8
20180221032755 7 22 6.4 12.9 0.00 0.00 0.00 78 1008.8
20180221032553 7 35 6.4 12.9 0.00 0.00 0.00 78 1008.8
20180221032256 7 22 6.4 12.9 0.00 0.00 0.00 78 1008.8
20180221032052 7 22 6.4 12.9 0.00 0.00 0.00 78 1008.9
20180221031756 7 22 8.0 12.9 0.00 0.00 0.00 78 1009.0
20180221031554 7 22 6.4 12.9 0.00 0.00 0.00 78 1009.0
20180221031256 7 44 8.0 12.9 0.00 0.00 0.00 78 1009.0
20180221031054 7 27 4.8 12.9 0.00 0.00 0.00 77 1009.0
20180221030756 7 25 4.8 12.9 0.00 0.00 0.00 76 1009.1
20180221030552 8 22 4.8 12.9 0.00 0.00 0.00 75 1009.1
20180221030255 8 41 6.4 12.9 0.00 0.00 0.00 75 1009.1
20180221030053 8 22 4.8 12.9 0.00 0.00 0.00 75 1009.1
20180221025755 8 44 6.4 12.9 0.00 0.00 0.00 75 1009.1
20180221025553 8 22 6.4 12.9 0.00 0.00 0.00 75 1009.2
20180221025256 8 20 9.7 12.9 0.00 0.00 0.00 75 1009.2
20180221025052 8 45 9.7 12.9 0.00 0.00 0.00 75 1009.2
20180221024755 8 51 8.0 12.9 0.00 0.00 0.00 75 1009.2
20180221024553 8 60 6.4 12.9 0.00 0.00 0.00 75 1009.2
20180221024255 8 36 6.4 12.9 0.00 0.00 0.00 74 1009.2
20180221024053 8 37 6.4 12.9 0.00 0.00 0.00 74 1009.2
20180221023755 8 22 4.8 12.9 0.00 0.00 0.00 73 1009.2
20180221023553 9 34 6.4 12.9 0.00 0.00 0.00 73 1009.2
20180221023256 9 45 9.7 12.9 0.00 0.00 0.00 73 1009.2
20180221023054 8 45 8.0 11.3 0.00 0.00 0.00 74 1009.3
20180221022754 8 56 8.0 9.7 0.00 0.00 0.00 75 1009.3
20180221022552 8 48 8.0 9.7 0.00 0.00 0.00 75 1009.3
20180221022255 8 53 8.0 9.7 0.00 0.00 0.00 75 1009.3
20180221022053 8 60 8.0 9.7 0.00 0.00 0.00 75 1009.4
20180221021755 8 45 4.8 9.7 0.00 0.00 0.00 74 1009.5
20180221021553 8 32 4.8 9.7 0.00 0.00 0.00 74 1009.5
20180221021254 8 22 4.8 9.7 0.00 0.00 0.00 74 1009.5
20180221021052 8 42 4.8 9.7 0.00 0.00 0.00 74 1009.5
20180221020756 8 45 6.4 9.7 0.00 0.00 0.00 74 1009.6
20180221020553 8 45 6.4 9.7 0.00 0.00 0.00 75 1009.6
20180221020254 8 68 6.4 9.7 0.00 0.00 0.00 75 1009.6
20180221020054 8 67 8.0 9.7 0.00 0.00 0.00 76 1009.6
20180221015755 8 45 6.4 9.7 0.00 0.00 0.00 78 1009.6
20180221015553 7 45 4.8 8.0 0.00 0.00 0.00 78 1009.8
20180221015254 7 32 3.2 8.0 0.00 0.00 0.00 78 1009.8
20180221015054 7 45 3.2 8.0 0.00 0.00 0.00 78 1009.8
20180221014755 7 45 4.8 8.0 0.00 0.00 0.00 78 1009.8
20180221014552 7 45 4.8 8.0 0.00 0.00 0.00 79 1009.8
20180221014254 7 38 6.4 8.0 0.00 0.00 0.00 79 1010.0
20180221014054 7 45 6.4 8.0 0.00 0.00 0.00 79 1010.0
20180221013755 7 45 6.4 8.0 0.00 0.00 0.00 80 1010.0
20180221013553 7 42 6.4 8.0 0.00 0.00 0.00 81 1010.0
20180221013255 7 35 4.8 8.0 0.00 0.00 0.00 81 1010.1
20180221013053 7 58 4.8 8.0 0.00 0.00 0.00 82 1010.2
20180221012755 7 36 6.4 8.0 0.00 0.00 0.00 82 1010.2
20180221012553 7 45 6.4 8.0 0.00 0.00 0.00 83 1010.2
20180221012254 7 45 4.8 6.4 0.00 0.00 0.00 85 1010.2
20180221012052 6 56 3.2 6.4 0.00 0.00 0.00 85 1010.1
20180221011754 6 45 0.0 3.2 0.00 0.00 0.00 85 1010.1
20180221011553 6 36 0.0 3.2 0.00 0.00 0.00 85 1010.1
20180221011255 6 29 0.0 3.2 0.00 0.00 0.00 85 1010.1
20180221011054 6 45 0.0 3.2 0.00 0.00 0.00 85 1010.1
20180221010755 6 45 0.0 3.2 0.00 0.00 0.00 84 1010.0
20180221010552 6 32 0.0 3.2 0.00 0.00 0.00 83 1010.0
20180221010254 7 22 0.0 3.2 0.00 0.00 0.00 83 1010.0
20180221010052 7 4 0.0 3.2 0.00 0.00 0.00 83 1010.0
20180221005756 7 338 0.0 3.2 0.00 0.00 0.00 83 1010.0
20180221005552 7 338 0.0 3.2 0.00 0.00 0.00 83 1010.1
20180221005254 7 328 0.0 3.2 0.00 0.00 0.00 83 1010.1
20180221005053 7 338 0.0 3.2 0.00 0.00 0.00 83 1010.1
20180221004755 7 14 0.0 3.2 0.00 0.00 0.00 83 1010.1
20180221004552 7 22 0.0 3.2 0.00 0.00 0.00 83 1010.1
20180221004255 7 22 0.0 3.2 0.00 0.00 0.00 83 1010.0
20180221004052 7 38 1.6 3.2 0.00 0.00 0.00 83 1010.0
20180221003754 7 34 0.0 1.6 0.00 0.00 0.00 82 1010.0
20180221003552 7 35 0.0 1.6 0.00 0.00 0.00 82 1010.0
20180221003256 8 340 0.0 0.0 0.00 0.00 0.00 81 1010.2
20180221003052 8 22 0.0 0.0 0.00 0.00 0.00 81 1010.2
20180221002755 8 5 0.0 0.0 0.00 0.00 0.00 80 1010.2
20180221002552 8 22 0.0 0.0 0.00 0.00 0.00 80 1010.2
20180221002254 8 27 0.0 0.0 0.00 0.00 0.00 80 1010.2
20180221002053 8 54 0.0 0.0 0.00 0.00 0.00 79 1010.4
20180221001754 8 45 0.0 0.0 0.00 0.00 0.00 77 1010.4
20180221001552 8 22 0.0 0.0 0.00 0.00 0.00 77 1010.4
20180221001255 8 22 0.0 0.0 0.00 0.00 0.00 77 1010.4
20180221001053 8 45 0.0 0.0 0.00 0.00 0.00 77 1010.4
20180221000755 8 90 0.0 0.0 0.00 0.00 0.00 76 1010.4
20180221000553 8 112 0.0 0.0 0.00 0.00 0.00 76 1010.4
20180221000254 8 112 0.0 0.0 0.00 0.00 0.00 76 1010.4
20180221000052 8 112 0.0 0.0 0.00 0.00 0.00 76 1010.4
20180220235755 8 112 0.0 20.9 0.00 0.00 0.00 76 1010.4
20180220235552 8 112 0.0 20.9 0.00 0.00 0.00 76 1010.7
20180220235256 8 112 0.0 20.9 0.00 0.00 0.00 76 1010.7
20180220235053 8 112 1.6 20.9 0.00 0.00 0.00 76 1010.7
20180220234754 8 112 0.0 20.9 0.00 0.00 0.00 75 1010.7
20180220234552 8 112 0.0 20.9 0.00 0.00 0.00 75 1010.7
20180220234254 8 112 0.0 20.9 0.00 0.00 0.00 74 1010.5
20180220234053 9 112 0.0 20.9 0.00 0.00 0.00 74 1010.5
20180220233754 9 132 0.0 20.9 0.00 0.00 0.00 74 1010.5
20180220233552 9 165 0.0 20.9 0.00 0.00 0.00 74 1010.5
20180220233255 9 158 0.0 20.9 0.00 0.00 0.00 73 1010.6
20180220233053 9 158 0.0 20.9 0.00 0.00 0.00 73 1010.6
20180220232754 10 158 0.0 20.9 0.00 0.00 0.00 73 1010.6
20180220232553 10 188 0.0 20.9 0.00 0.00 0.00 73 1010.6
20180220232254 10 158 0.0 20.9 0.00 0.00 0.00 73 1010.6
20180220232051 10 167 0.0 20.9 0.00 0.00 0.00 73 1010.6
20180220231755 10 224 3.2 20.9 0.00 0.00 0.00 72 1010.6
20180220231552 10 225 3.2 20.9 0.00 0.00 0.00 71 1010.6
20180220231254 11 135 0.0 20.9 0.00 0.00 0.00 70 1010.6
20180220231053 11 112 0.0 20.9 0.00 0.00 0.00 69 1010.6
20180220230754 11 112 0.0 20.9 0.00 0.00 0.00 69 1010.7
20180220230551 11 81 3.2 20.9 0.00 0.00 0.00 69 1010.7
20180220230255 11 97 1.6 20.9 0.00 0.00 0.00 69 1010.7